Location: Melara
(45.0500°N, 11.1833°E)
Time: 22:23:38
(UTC+00:00)

CRYOSAT 2 - Pass Details

Date: 26 May 2022
Orbit: 716 x 723 km, 92.0° (Epoch: 04 July)

Event Time Altitude Azimuth Distance (km) Brightness Sun altitude
Exits shadow 01:36:44 24° 187° (S) 1,484 5.5 -16.1°
Maximum altitude 01:39:43 69° 267° (W) 773 4.3 -15.8°
Drops below altitude 10° 01:44:37 10° 351° (N) 2,221 7.5 -15.3°
Sets 01:46:56 0° 354° (N) 3,147 8.4 -15.1°
